Fairchild Air Force Base, WA

9:30 PM PDT on September 27, 2016 (GMT -0700)
Fairchild Air Force Base

Weather History for KSKA - June, 2014

Change the Weather History Date:

Tuesday, June 10, 2014

  Actual Average Record
Temperature  
Mean Temperature 60 °F -  
Max Temperature 73 °F 68 °F 87 °F (2015)
Min Temperature 46 °F 47 °F 33 °F (2008)
Degree Days  
Heating Degree Days 6    
Growing Degree Days 10 (Base 50)    
Moisture  
Dew Point 36 °F    
Average Humidity 44    
Maximum Humidity 64    
Minimum Humidity 21    
Precipitation  
Precipitation 0.00 in - - ()
Sea Level Pressure  
Sea Level Pressure 29.90 in    
Wind  
Wind Speed 8 mph (WSW)    
Max Wind Speed 21 mph    
Max Gust Speed 25 mph    
Visibility 10 miles    
Events      
Averages and records for this station are not official NWS values.
T = Trace of Precipitation, MM = Missing Value Source: NWS Daily Summary

Daily Weather History Graph

Daily Weather History Graph

Search for Another Location

Airport or City:

Trip Planner

Search our weather history database for the weather conditions in past years. The results will help you decide how hot, cold, wet, or windy it might be!

Date:

Astronomy

Jun. 10, 2014 Rise Set
Actual Time 4:52 AM PDT 8:47 PM PDT
Civil Twilight 4:12 AM PDT 9:27 PM PDT
Nautical Twilight 3:17 AM PDT 10:23 PM PDT
Astronomical Twilight 1:52 AM PDT 11:49 PM PDT
Moon 6:08 PM PDT (6/10) 3:13 AM PDT (6/10)
Length of Visible Light 17h 15m
Length of Day
15h 54m
Waxing Gibbous, 93% of the Moon is Illuminated
Jun 10
Waxing Gibbous
Jun 12
Full
Jun 19
Last Quarter
Jun 27
New
Jul 5
First Quarter

Hourly Weather History & Observations

Time (PDT) Temp. Dew Point Humidity Pressure Visibility Wind Dir Wind Speed Gust Speed Precip Events Conditions
12:58 AM 50.5 °F 34.3 °F 54% 29.86 in 10.0 mi SSW 9.2 mph - N/A   Clear
1:58 AM 49.6 °F 33.3 °F 53% 29.84 in 10.0 mi WSW 9.2 mph - N/A   Clear
2:58 AM 46.8 °F 32.7 °F 58% 29.85 in 10.0 mi WSW 6.9 mph - N/A   Clear
3:58 AM 47.3 °F 33.8 °F 59% 29.86 in 10.0 mi South 9.2 mph - N/A   Clear
4:58 AM 46.6 °F 34.0 °F 62% 29.87 in 10.0 mi South 8.1 mph - N/A   Clear
5:58 AM 46.9 °F 34.2 °F 61% 29.87 in 10.0 mi SSW 6.9 mph - N/A   Clear
6:58 AM 50.0 °F 35.1 °F 57% 29.88 in 10.0 mi South 8.1 mph - N/A   Clear
7:58 AM 53.8 °F 36.3 °F 52% 29.89 in 10.0 mi Variable 4.6 mph - N/A   Clear
8:58 AM 58.3 °F 37.4 °F 46% 29.89 in 10.0 mi Variable 1.2 mph - 0.00 in   Clear
9:58 AM 63.0 °F 36.7 °F 38% 29.88 in 10.0 mi Variable 1.2 mph - N/A   Clear
10:58 AM 66.2 °F 37.2 °F 34% 29.90 in 10.0 mi West 5.8 mph - N/A   Partly Cloudy
11:58 AM 67.6 °F 35.2 °F 30% 29.90 in 10.0 mi Variable 3.5 mph - N/A   Mostly Cloudy
12:58 PM 70.9 °F 34.7 °F 26% 29.89 in 10.0 mi SW 8.1 mph - N/A   Mostly Cloudy
1:30 PM 71.6 °F 32.0 °F 23% 29.89 in 10.0 mi West 11.5 mph 21.9 mph N/A   Mostly Cloudy
1:58 PM 70.7 °F 30.0 °F 22% 29.88 in 10.0 mi WSW 16.1 mph - N/A   Overcast
2:58 PM 70.9 °F 32.2 °F 24% 29.88 in 10.0 mi WSW 17.3 mph - N/A   Mostly Cloudy
3:58 PM 73.2 °F 31.3 °F 21% 29.89 in 10.0 mi West 20.7 mph 25.3 mph N/A   Overcast
4:28 PM 71.6 °F 33.8 °F 25% 29.91 in 10.0 mi WNW 12.7 mph - N/A   Mostly Cloudy
4:58 PM 68.4 °F 37.9 °F 33% 29.92 in 10.0 mi NNW 11.5 mph 20.7 mph N/A   Mostly Cloudy
5:58 PM 67.8 °F 37.4 °F 33% 29.92 in 10.0 mi NNW 10.4 mph - N/A   Overcast
6:58 PM 66.4 °F 38.3 °F 36% 29.93 in 10.0 mi North 11.5 mph - N/A   Overcast
7:58 PM 62.1 °F 41.9 °F 48% 29.93 in 10.0 mi East 10.4 mph - N/A   Clear
8:58 PM 57.2 °F 42.1 °F 57% 29.94 in 10.0 mi ENE 6.9 mph - N/A   Clear
9:58 PM 53.6 °F 41.2 °F 63% 29.95 in 10.0 mi ENE 5.8 mph - N/A   Clear
10:58 PM 52.5 °F 40.3 °F 63% 29.96 in 10.0 mi NNE 2.3 mph - N/A   Clear
11:58 PM 53.1 °F 41.0 °F 64% 29.95 in 10.0 mi East 2.3 mph - N/A   Clear